Location: Bothwell
(42.3833°S, 147.0000°E)
Time: 00:41:42
(UTC+10:00)

XW-2B - Visible Passes

Search period start: 22 September 2023 00:00
Search period end: 02 October 2023 01:00
Orbit: 465 x 479 km, 97.5° (Epoch: 21 September)

Date Brightness Start Highest point End Pass type
(mag) Time Alt. Az. Time Alt. Az. Time Alt. Az.
22 Sep ? 18:51:12 10° S 18:54:51 84° WSW 18:58:27 10° NNW visible
23 Sep ? 05:25:50 10° NE 05:29:06 37° ESE 05:32:27 10° S visible
23 Sep ? 19:57:27 10° SSW 19:59:22 14° WSW 20:01:16 10° W visible
24 Sep ? 04:58:36 10° ENE 05:01:01 17° ESE 05:03:27 10° SSE visible
24 Sep ? 19:28:08 10° S 19:31:17 28° WSW 19:34:25 10° NW visible
25 Sep ? 18:59:28 10° S 19:03:04 65° WSW 19:06:38 10° NNW visible
26 Sep ? 20:06:13 10° SW 20:07:24 11° WSW 20:08:35 10° W visible
27 Sep ? 05:06:17 10° ENE 05:09:01 21° ESE 05:11:49 10° SSE visible
27 Sep ? 19:36:20 10° SSW 19:39:15 23° WSW 19:42:08 10° WNW visible
28 Sep ? 04:40:17 10° ESE 04:40:53 10° ESE 04:41:28 10° SE visible
28 Sep ? 19:07:24 10° S 19:10:57 51° WSW 19:14:26 10° NNW visible
29 Sep ? 18:38:53 10° SSE 18:42:30 65° E 18:46:04 10° N visible
30 Sep ? 05:13:43 10° NE 05:16:43 26° ESE 05:19:44 10° SSE visible
30 Sep ? 19:44:14 10° SSW 19:46:52 19° WSW 19:49:29 10° WNW visible
01 Oct ? 05:46:51 10° E 05:48:26 13° ESE 05:50:02 10° SE visible
01 Oct ? 20:15:04 10° S 20:18:30 41° WSW 20:21:52 10° NW visible
